Regional Weather Roundup
Issued by NWS

Home | Current Version | Previous Version | Graphics & Text | Print | Product List | Glossary On
Versions: 1 2 3 4 5 6 7 8 9 10 11 12 13 14 15 16 17 18 19 20 21 22 23 24 25 26 27 28 29 30 31 32 33 34 35 36 37 38 39 40 41 42 43 44 45 46 47 48 49 50
000
ASUS43 KTOP 260759
RWRKS

WEATHER ROUNDUP FOR KANSAS
NATIONAL WEATHER SERVICE GOODLAND KS
300 AM CDT TUE MAY 26 2015

NOTE:  "FAIR" INDICATES FEW OR NO CLOUDS BELOW 12,000 FEET WITH NO
SIGNIFICANT WEATHER AND/OR OBSTRUCTIONS TO VISIBILITY.

KSZ001>006-013>018-027>032-041>047-260900-
NORTHWEST KANSAS

CITY           SKY/WX    TMP DP  RH WIND       PRES   REMARKS
GOODLAND       MOCLDY    48  46  93 NW6       29.95R
HAYS           CLOUDY    57  48  72 NW10      29.84S
HILL CITY      CLOUDY    57  52  83 NW13      29.85S
RUSSELL        CLOUDY    59  57  93 SW9       29.81S
$$

KSZ061>065-074>080-084>089-260900-
SOUTHWEST KANSAS

CITY           SKY/WX    TMP DP  RH WIND       PRES   REMARKS
DODGE CITY     MOCLDY    57  52  83 W5        29.90S
ELKHART          N/A     56  48  74 W8          N/A
GARDEN CITY    CLEAR     54  49  83 N12       29.90S
GREAT BEND     CLOUDY    57  54  88 SW7       29.84R
LIBERAL        CLEAR     55  48  76 CALM      29.91R
$$

KSZ066>073-081>083-090>101-260900-
SOUTHEAST KANSAS

CITY           SKY/WX    TMP DP  RH WIND       PRES   REMARKS
CHANUTE        CLOUDY    62  59  90 CALM      29.82R
COFFEYVILLE    LGT RAIN  61  60  97 SE5       29.82R
HUTCHINSON     CLOUDY    62  55  77 SW5       29.82F
NEWTON         CLOUDY    57  54  88 S9        29.85F
PARSONS        CLOUDY    62  60  93 CALM      29.83S
WICHITA INTL   LGT RAIN  60  58  92 S7        29.84F
WICHITA JABRA  LGT RAIN  59  58  96 CALM      29.84S
WICHITA MCCONL LGT RAIN  61  57  88 NW2       29.86R
WINFIELD       LGT RAIN  60  59  96 NE7       29.86R
$$

KSZ007>012-019>026-033>040-048>060-102>105-260900-
NORTHEAST KANSAS

CITY           SKY/WX    TMP DP  RH WIND       PRES   REMARKS
CONCORDIA      CLOUDY    59  56  89 S3        29.80F
EMPORIA        LGT RAIN  60  59  96 E7        29.81F
LAWRENCE       LGT RAIN  62  59  90 NW13      29.80F
MANHATTAN      LGT RAIN  61  59  93 E5        29.82S
OLATHE IND     LGT RAIN  62  61  96 N8        29.80F
OLATHE EXE     LGT RAIN  62  61  96 N8        29.78F
SALINA         CLOUDY    61  56  83 S9        29.81S
TOPEKA BILLARD LGT RAIN  61  60  97 NW7       29.82F
TOPEKA FORBES  LGT RAIN  62  59  90 W12       29.82F
$$



USA.gov is the U.S. government's official web portal to all federal, state and local government web resources and services.